Quincy, IL

3:52 AM CDT on July 26, 2017 (GMT -0500)
Quincy Regional-Baldwin

Weather History for KUIN - April, 2013

Change the Weather History Date:

Tuesday, April 9, 2013

  Actual Average Record
Temperature  
Mean Temperature 69 °F 51 °F  
Max Temperature 77 °F 61 °F 85 °F (2001)
Min Temperature 61 °F 41 °F 19 °F (1997)
Degree Days  
Heating Degree Days 0 14  
Month to date heating degree days 132 141  
Since 1 July heating degree days 5185 5201  
Cooling Degree Days 4 0  
Month to date cooling degree days 4 0  
Year to date cooling degree days 4 2  
Growing Degree Days 18 (Base 50)    
Moisture  
Dew Point 58 °F    
Average Humidity 72    
Maximum Humidity 87    
Minimum Humidity 57    
Precipitation  
Precipitation 0.00 in 0.12 in 1.02 in (1938)
Month to date precipitation 0.79 1.01  
Year to date precipitation 8.41 6.87  
Sea Level Pressure  
Sea Level Pressure 29.78 in    
Wind  
Wind Speed 11 mph (South)    
Max Wind Speed 25 mph    
Max Gust Speed 35 mph    
Visibility 10 miles    
Events      
T = Trace of Precipitation, MM = Missing Value Source: NWS Daily Summary

Daily Weather History Graph

Daily Weather History Graph

Search for Another Location

Airport or City:

Trip Planner

Search our weather history database for the weather conditions in past years. The results will help you decide how hot, cold, wet, or windy it might be!

Date:

Astronomy

Apr. 09, 2013 Rise Set
Actual Time 6:35 AM CDT 7:37 PM CDT
Civil Twilight 6:08 AM CDT 8:05 PM CDT
Nautical Twilight 5:35 AM CDT 8:38 PM CDT
Astronomical Twilight 5:00 AM CDT 9:12 PM CDT
Moon 5:58 AM CDT (4/9) 7:13 PM CDT (4/9)
Length of Visible Light 13h 57m
Length of Day
13h 01m
Waning Crescent, 1% of the Moon is Illuminated
Apr 9
Waning Crescent
Apr 10
New
Apr 18
First Quarter
Apr 25
Full
May 2
Last Quarter

Hourly Weather History & Observations

Time (CDT) Temp. Dew Point Humidity Pressure Visibility Wind Dir Wind Speed Gust Speed Precip Events Conditions
12:54 AM 62.6 °F 55.4 °F 77% 29.83 in 10.0 mi SSE 5.8 mph - N/A   Partly Cloudy
1:54 AM 62.1 °F 55.0 °F 78% 29.80 in 10.0 mi SE 5.8 mph - N/A   Partly Cloudy
2:54 AM 63.0 °F 55.9 °F 78% 29.77 in 10.0 mi SSE 5.8 mph - N/A   Overcast
3:54 AM 62.1 °F 55.9 °F 80% 29.76 in 10.0 mi SE 4.6 mph - N/A   Mostly Cloudy
4:54 AM 64.9 °F 57.0 °F 75% 29.77 in 10.0 mi SSE 6.9 mph - N/A   Overcast
5:54 AM 64.0 °F 57.0 °F 78% 29.78 in 10.0 mi SSE 6.9 mph - N/A   Overcast
6:54 AM 64.9 °F 57.0 °F 75% 29.78 in 10.0 mi SSE 9.2 mph - N/A   Overcast
7:54 AM 64.9 °F 55.9 °F 73% 29.78 in 10.0 mi South 9.2 mph - N/A   Overcast
8:54 AM 66.9 °F 57.0 °F 70% 29.79 in 10.0 mi South 11.5 mph - N/A   Mostly Cloudy
9:54 AM 69.1 °F 57.9 °F 68% 29.77 in 10.0 mi South 13.8 mph - N/A   Mostly Cloudy
10:54 AM 72.0 °F 57.9 °F 61% 29.79 in 10.0 mi SSW 20.7 mph 29.9 mph N/A   Mostly Cloudy
11:54 AM 72.0 °F 57.9 °F 61% 29.81 in 10.0 mi SW 15.0 mph - N/A   Overcast
12:54 PM 73.0 °F 57.9 °F 59% 29.81 in 10.0 mi SSW 16.1 mph 25.3 mph N/A   Mostly Cloudy
1:54 PM 73.9 °F 60.1 °F 62% 29.79 in 10.0 mi SSW 19.6 mph 26.5 mph N/A   Scattered Clouds
2:54 PM 73.9 °F 60.1 °F 62% 29.78 in 10.0 mi SSW 24.2 mph 28.8 mph N/A   Partly Cloudy
3:54 PM 75.9 °F 62.1 °F 62% 29.77 in 10.0 mi SSW 15.0 mph 23.0 mph N/A   Mostly Cloudy
4:54 PM 75.9 °F 61.0 °F 60% 29.77 in 10.0 mi SW 15.0 mph 23.0 mph N/A   Mostly Cloudy
5:54 PM 73.9 °F 60.1 °F 62% 29.78 in 10.0 mi SSW 12.7 mph - N/A   Mostly Cloudy
6:54 PM 73.0 °F 61.0 °F 66% 29.76 in 10.0 mi South 6.9 mph - N/A   Mostly Cloudy
7:54 PM 72.0 °F 60.1 °F 66% 29.77 in 10.0 mi SSE 8.1 mph - N/A   Mostly Cloudy
8:54 PM 70.0 °F 59.0 °F 68% 29.79 in 10.0 mi SSE 5.8 mph - N/A   Partly Cloudy
9:54 PM 66.0 °F 59.0 °F 78% 29.80 in 10.0 mi SE 5.8 mph - N/A   Overcast
10:54 PM 64.9 °F 60.1 °F 84% 29.78 in 10.0 mi SE 5.8 mph - N/A   Overcast
11:54 PM 64.9 °F 59.0 °F 81% 29.73 in 10.0 mi SE 6.9 mph - N/A   Clear